Location: Unspecified
(52.4292°N, 19.3359°E)
Time: 00:40:10
(UTC+02:00)

Vanguard 1 Rocket - Pass Details

Date: 21 May 2024
Orbit: 649 x 4221 km, 34.3° (Epoch: 13 June)

Event Time Altitude Azimuth Distance (km) Brightness Sun altitude
Rises 15:14:10 0° 263° (W) 5,513 12.0 46.2°
Reaches altitude 10° 15:20:58 10° 239° (WSW) 3,638 11.5 45.3°
Maximum altitude 15:24:10 12° 217° (SW) 3,049 11.0 44.9°
Drops below altitude 10° 15:26:51 10° 194° (SSW) 2,903 10.6 44.5°
Sets 15:30:51 0° 163° (SSE) 3,410 10.5 44.0°
